Jaffrey, NH

2:03 PM EDT on September 28, 2016 (GMT -0400)
Jaffrey Airport-Silver Ranch

Weather History for KAFN - June, 2014

Change the Weather History Date:

Tuesday, June 10, 2014

  Actual Average Record
Temperature  
Mean Temperature 67 °F -  
Max Temperature 77 °F 69 °F 95 °F (2008)
Min Temperature 59 °F 48 °F 44 °F (1999)
Cooling Degree Days 2    
Growing Degree Days 17 (Base 50)    
Moisture  
Dew Point 58 °F    
Average Humidity 79    
Maximum Humidity 96    
Minimum Humidity 58    
Precipitation  
Precipitation 0.00 in - - ()
Sea Level Pressure  
Sea Level Pressure 30.02 in    
Wind  
Wind Speed 2 mph (SSW)    
Max Wind Speed 7 mph    
Max Gust Speed -    
Visibility 9 miles    
Events      
Averages and records for this station are not official NWS values.
T = Trace of Precipitation, MM = Missing Value Source: NWS Daily Summary

Daily Weather History Graph

Daily Weather History Graph

Search for Another Location

Airport or City:

Trip Planner

Search our weather history database for the weather conditions in past years. The results will help you decide how hot, cold, wet, or windy it might be!

Date:

Astronomy

Jun. 10, 2014 Rise Set
Actual Time 5:09 AM EDT 8:25 PM EDT
Civil Twilight 4:34 AM EDT 9:00 PM EDT
Nautical Twilight 3:49 AM EDT 9:46 PM EDT
Astronomical Twilight 2:54 AM EDT 10:41 PM EDT
Moon 5:44 PM EDT (6/10) 3:17 AM EDT (6/10)
Length of Visible Light 16h 26m
Length of Day
15h 16m
Waxing Gibbous, 92% of the Moon is Illuminated
Jun 10
Waxing Gibbous
Jun 13
Full
Jun 19
Last Quarter
Jun 27
New
Jul 5
First Quarter

Hourly Weather History & Observations

Time (EDT) Temp. Dew Point Humidity Pressure Visibility Wind Dir Wind Speed Gust Speed Precip Events Conditions
12:52 AM 60.1 °F 57.0 °F 90% 30.00 in 10.0 mi Calm Calm - N/A   Overcast
1:22 AM 60.1 °F 57.0 °F 90% 29.99 in 10.0 mi Calm Calm - N/A   Overcast
1:52 AM 60.1 °F 57.0 °F 90% 30.00 in 9.0 mi Calm Calm - N/A   Overcast
2:50 AM 59.0 °F 57.2 °F 94% 29.98 in 8.0 mi SSW 3.5 mph - N/A   Overcast
2:52 AM 59.0 °F 57.0 °F 93% 29.99 in 7.0 mi SW 3.5 mph - N/A   Overcast
3:52 AM 60.1 °F 57.0 °F 90% 29.98 in 7.0 mi Calm Calm - N/A   Overcast
4:52 AM 59.0 °F 57.0 °F 93% 29.99 in 7.0 mi Calm Calm - 0.00 in   Overcast
5:17 AM 60.1 °F 57.0 °F 90% 29.97 in 8.0 mi Calm Calm - N/A   Overcast
5:52 AM 59.0 °F 57.0 °F 93% 29.99 in 5.0 mi South 5.8 mph - N/A   Overcast
6:52 AM 59.0 °F 57.9 °F 96% 30.00 in 5.0 mi SSW 5.8 mph - N/A   Overcast
7:52 AM 61.0 °F 57.9 °F 90% 30.00 in 9.0 mi Variable 3.5 mph - N/A   Overcast
8:17 AM 62.1 °F 57.9 °F 86% 29.98 in 10.0 mi SSW 4.6 mph - N/A   Overcast
8:52 AM 63.0 °F 59.0 °F 87% 30.00 in 10.0 mi SSW 5.8 mph - N/A   Overcast
11:52 AM 75.0 °F 60.1 °F 60% 29.98 in 10.0 mi Variable 3.5 mph - N/A   Partly Cloudy
12:24 PM 75.0 °F 60.1 °F 60% 29.97 in 10.0 mi West 4.6 mph - N/A   Mostly Cloudy
12:48 PM 75.2 °F 60.8 °F 61% 29.97 in 10.0 mi Variable 4.6 mph - N/A   Overcast
12:52 PM 75.9 °F 60.1 °F 58% 29.97 in 10.0 mi Variable 5.8 mph - N/A   Mostly Cloudy
2:52 PM 75.0 °F 61.0 °F 62% 29.99 in 10.0 mi Variable 5.8 mph - N/A   Overcast
3:21 PM 73.0 °F 61.0 °F 66% 29.99 in 10.0 mi Variable 3.5 mph - N/A   Overcast
5:52 PM 75.9 °F 60.1 °F 58% 30.01 in 10.0 mi North - - N/A   Mostly Cloudy
6:52 PM 69.1 °F 61.0 °F 75% 30.04 in 10.0 mi Variable 4.6 mph - N/A   Scattered Clouds
7:04 PM 68.0 °F 60.1 °F 76% 30.04 in 10.0 mi Variable 5.8 mph - N/A   Mostly Cloudy
7:13 PM 68.0 °F 59.0 °F 73% 30.05 in 10.0 mi East 5.8 mph - N/A   Mostly Cloudy
7:52 PM 66.0 °F 59.0 °F 78% 30.07 in 10.0 mi Calm Calm - N/A   Overcast
8:19 PM 64.9 °F 57.9 °F 78% 30.08 in 10.0 mi Variable 5.8 mph - N/A   Overcast
8:52 PM 64.0 °F 57.0 °F 78% 30.10 in 10.0 mi Variable 3.5 mph - N/A   Overcast
9:35 PM 63.0 °F 55.9 °F 78% 30.10 in 10.0 mi ENE 4.6 mph - N/A   Overcast
9:52 PM 63.0 °F 55.9 °F 78% 30.12 in 10.0 mi Variable 6.9 mph - N/A   Overcast
10:08 PM 63.0 °F 55.9 °F 78% 30.11 in 10.0 mi Calm Calm - N/A   Overcast
10:28 PM 62.1 °F 55.0 °F 78% 30.12 in 10.0 mi Calm Calm - N/A   Overcast
11:52 PM 61.0 °F 54.0 °F 78% 30.14 in 10.0 mi Calm Calm - N/A   Overcast